RH
34 31 36 44 51 50 48 48 47 44 43 41 38 33 32 29 23 23 34 25 21 18 15 16 21 22 22 24 21 18 26 28 22 16 15 12 13 12 11 13 12 12 18 27 35
39 35 34 39 45 50 48 47 47 46 46 42 39 36 32 34 32 40 12 22 19 20 16 17 18 17 26 23 22 22 29 26 17 15 13 12 13 14 14 14 13 12 12 20 23
38 41 44 37 41 49 50 48 47 48 48 46 42 37 34 36 43 29 24 21 22 18 16 13 14 18 22 22 21 21 26 20 18 14 14 14 14 13 14 15 13 13 15 14 15
55 42 43 43 40 45 51 49 48 48 47 46 44 40 34 39 40 24 23 20 18 20 21 17 19 22 22 24 21 23 19 18 18 15 14 14 13 13 13 13 12 20 19 29 35
68 55 48 46 48 42 48 51 50 51 51 51 48 46 36 46 37 22 19 22 22 26 29 22 23 22 22 20 20 22 20 17 17 16 15 13 15 14 14 13 19 19 26 31 36
75 64 59 50 48 52 48 53 54 55 55 54 53 51 51 49 17 24 20 22 20 23 23 20 21 18 20 20 21 18 19 18 16 16 17 17 15 14 14 13 20 21 29 29 34
77 73 63 62 54 52 57 58 58 56 57 56 56 57 51 44 21 27 24 22 22 21 22 19 17 19 21 23 19 19 22 21 19 16 18 17 19 18 16 14 21 23 26 28 35
90 76 66 63 63 53 61 63 62 61 60 59 60 56 62 26 20 16 23 25 24 23 22 21 22 25 22 23 25 25 25 31 20 18 17 19 23 18 16 14 26 25 27 30 36
100 90 74 62 63 61 65 71 69 66 63 65 59 55 57 25 28 22 24 24 25 24 24 23 23 28 30 34 40 31 39 34 27 19 18 20 22 19 18 16 24 28 28 34 38
94 100 87 74 63 66 77 78 76 75 67 68 56 52 47 38 24 24 23 23 26 29 30 30 33 38 40 45 53 44 39 31 30 23 22 23 23 22 19 20 23 28 32 35 40
95 99 99 83 72 72 89 86 86 86 69 57 46 40 21 22 20 25 23 25 29 34 45 38 50 52 41 39 36 33 34 36 29 22 23 27 26 25 22 21 23 29 33 36 37
91 88 100 94 81 79 80 70 46 36 63 54 42 35 24 23 29 25 26 34 38 46 39 44 52 39 34 33 34 35 36 36 28 24 29 30 30 26 23 23 25 27 33 37 38
87 89 98 100 84 91 90 60 39 43 60 40 45 36 30 25 31 32 27 30 36 41 41 48 40 34 36 36 36 33 35 34 34 28 27 29 34 28 23 22 23 26 32 33 38
93 89 96 100 98 96 87 51 43 49 54 39 41 40 34 25 34 26 25 28 35 40 38 40 33 33 36 36 32 40 28 28 30 36 48 27 47 33 27 24 29 33 35 36 34
93 93 92 100 91 95 79 44 51 56 75 23 27 28 31 26 31 32 26 32 39 40 36 41 35 35 36 33 30 36 30 30 32 37 42 41 52 37 28 29 37 36 36 35 32
92 96 93 100 99 83 68 61 58 82 74 31 22 42 39 28 27 28 32 32 29 37 35 37 29 31 32 29 28 28 32 33 36 43 63 44 47 44 31 31 38 37 33 33 34
94 97 97 100 93 84 69 77 95 85 28 32 28 38 37 38 26 28 36 45 49 57 55 43 41 31 28 35 30 31 41 64 68 69 69 36 44 39 28 28 33 37 38 37 38
93 95 96 100 97 90 86 95 96 54 41 27 26 38 43 34 30 27 29 46 40 46 54 62 64 42 33 35 37 40 46 79 71 73 58 33 44 39 29 27 32 35 40 38 44
90 100 100 99 100 95 92 97 84 65 44 38 37 41 45 40 40 33 32 38 42 42 57 61 58 34 32 30 30 41 46 36 54 50 65 52 42 35 34 37 37 41 41 44 36
99 98 95 92 100 94 94 90 79 47 39 37 61 46 53 47 47 46 46 37 45 43 40 48 66 38 34 30 31 34 32 49 57 70 72 51 46 56 47 44 42 44 40 36 33
96 98 80 97 99 97 96 86 69 45 40 43 47 70 51 50 46 50 52 42 36 40 41 45 54 52 35 40 44 40 43 45 50 72 76 67 51 35 43 43 45 40 36 38 30
95 99 78 89 98 95 95 72 56 53 45 46 50 54 50 44 49 52 56 45 35 36 46 44 53 70 49 33 32 33 38 46 81 70 80 82 59 40 42 40 38 36 37 31 27
98 97 80 94 100 99 81 73 59 56 52 56 64 51 48 56 69 49 49 38 40 38 47 44 66 72 50 41 36 43 40 42 63 76 70 74 71 43 34 35 35 41 30 27 24
99 98 100 97 90 82 85 84 84 65 60 65 60 60 63 69 60 68 49 49 49 45 64 45 56 65 72 51 43 44 38 38 46 79 68 72 53 53 41 39 40 31 28 24 20
99 100 94 100 99 88 70 75 82 88 74 71 79 70 74 86 76 80 67 49 49 53 49 56 63 49 48 43 54 43 42 40 44 52 65 51 44 47 40 39 26 24 21 18 18
99 99 99 96 88 94 80 81 79 73 80 84 78 71 75 92 84 86 79 58 54 53 72 80 99 79 82 62 53 69 65 63 59 39 38 44 44 34 35 38 20 17 18 19 17
97 91 98 94 98 94 92 72 75 62 72 64 72 75 81 99 97 99 96 89 75 71 92 91 92 97 99 75 91 98 84 63 58 38 37 45 42 37 65 61 22 20 18 18 20
Wind_Speed
30 28 26 24 22 20 17 14 13 12 11 11 11 12 15 18 22 18 8 10 8 15 6 7 8 13 15 7 9 3 3 7 7 7 6 6 6 4 2 3 4 3 9 15 28
32 30 28 27 24 22 19 16 14 13 12 12 12 13 15 18 23 14 19 15 11 10 8 7 8 11 5 6 5 3 3 9 5 7 2 5 7 7 4 5 4 5 7 24 26
33 32 30 28 26 24 21 17 15 14 13 12 13 13 14 17 6 5 5 20 15 14 14 12 17 8 7 6 8 8 9 10 13 3 6 2 2 3 6 3 6 3 7 6 14
35 34 32 30 28 25 23 19 17 14 13 12 12 14 14 7 4 1 7 10 8 7 7 6 6 6 5 7 9 5 11 12 8 6 5 4 3 4 2 5 1 10 9 12 12
37 35 34 31 29 27 24 20 17 15 12 11 11 11 8 4 8 6 9 9 7 6 8 9 9 7 7 6 8 9 11 9 10 8 4 6 5 3 5 8 9 10 13 11 11
39 36 35 33 30 27 25 21 18 15 13 11 9 9 3 7 11 12 13 11 10 10 13 14 7 8 7 8 7 7 8 9 8 4 4 6 6 2 7 8 9 11 11 10 12
40 38 36 34 31 27 25 22 18 15 12 10 7 6 5 17 9 10 11 13 13 13 7 18 17 4 6 7 8 9 9 9 10 3 5 6 7 8 9 7 11 11 12 10 11
41 39 36 34 32 28 25 21 18 14 11 8 7 3 8 13 14 28 19 14 14 17 16 14 13 6 3 5 9 6 6 6 8 9 11 8 14 11 11 11 11 12 11 12 11
26 42 38 35 33 28 24 19 16 13 10 7 6 5 9 11 19 31 20 15 16 14 12 12 9 2 5 2 6 3 8 9 12 13 13 12 7 10 10 14 13 12 14 14 13
32 41 40 36 34 28 23 18 11 8 9 4 12 3 9 8 15 24 25 26 10 6 6 5 2 3 3 3 9 6 9 12 15 11 8 7 6 8 6 12 11 10 15 15 13
35 17 42 38 35 31 27 12 4 4 11 10 10 6 7 11 7 16 25 14 7 5 12 6 5 11 21 12 13 11 13 11 13 9 6 6 7 11 10 8 9 10 17 15 15
34 30 33 40 38 36 36 7 11 2 6 23 22 20 30 13 7 14 27 13 13 18 7 7 15 24 11 13 17 16 18 18 13 4 4 8 10 10 7 5 9 14 18 18 15
26 27 22 43 41 41 36 29 3 5 4 9 23 16 15 11 9 9 14 11 13 15 14 16 15 16 15 17 18 16 17 16 13 8 3 2 6 5 5 6 6 17 19 18 18
22 27 31 42 37 38 31 39 5 11 3 8 15 10 14 10 9 16 13 15 6 17 18 15 17 16 20 17 16 16 13 15 5 3 4 1 7 8 7 16 13 17 17 15 17
24 26 29 48 20 27 32 40 20 5 5 9 22 16 18 21 13 21 28 8 20 15 13 12 14 15 19 12 16 13 10 7 2 3 1 6 4 6 6 3 13 15 14 14 14
27 24 23 48 25 42 43 29 16 3 14 6 13 14 15 18 15 10 19 12 12 17 19 13 9 8 12 13 15 7 6 1 2 2 3 9 6 5 8 9 11 13 15 16 13
32 27 25 38 12 41 42 13 8 12 12 8 15 20 23 15 24 9 20 19 17 17 20 19 20 19 15 8 5 10 6 1 2 2 8 11 11 17 7 18 21 21 17 13 10
31 26 25 34 29 49 32 11 8 10 17 7 15 24 22 14 20 27 13 18 24 17 6 17 15 20 10 14 11 8 9 5 6 5 5 15 7 6 4 19 19 18 15 13 9
29 26 22 29 44 50 21 17 15 12 21 6 17 22 19 20 8 21 29 25 20 22 16 11 16 9 19 6 13 7 10 13 1 2 1 4 3 6 11 18 18 18 15 10 9
25 13 15 33 49 37 18 16 12 15 16 28 13 11 17 21 16 20 16 19 22 21 23 13 5 15 18 12 14 12 8 9 4 5 6 5 5 7 11 16 17 16 14 11 9
18 4 20 29 47 15 15 19 11 13 15 17 25 12 14 23 20 20 10 10 28 23 25 25 7 5 18 17 13 10 10 4 8 6 5 3 5 3 17 19 17 13 13 10 9
6 6 24 38 13 14 19 25 16 17 14 9 6 21 16 20 19 21 21 18 13 28 28 26 12 6 14 4 7 17 16 9 5 5 4 4 4 5 14 13 15 14 10 9 9
4 4 13 37 12 13 13 18 7 17 12 12 5 7 12 2 3 27 18 15 10 24 18 21 5 4 4 9 5 8 13 9 5 4 6 7 4 6 16 14 13 10 11 9 8
3 6 3 13 9 19 21 15 13 8 6 10 4 0 4 5 2 5 15 7 5 4 5 20 6 7 8 4 7 7 11 14 13 5 6 7 6 8 12 14 10 11 9 9 8
3 4 4 8 13 18 28 17 26 9 7 12 3 8 5 5 6 5 1 3 7 6 3 4 6 11 7 5 2 4 8 11 13 7 10 13 12 14 13 11 12 11 9 8 8
5 3 3 6 20 22 25 19 27 22 15 18 13 12 6 5 6 7 4 2 2 6 4 6 2 4 3 5 1 9 13 9 11 15 9 9 17 21 15 7 9 10 10 8 7
4 3 1 3 15 19 19 28 26 20 13 14 20 14 12 6 9 6 9 7 5 3 3 4 4 3 1 5 7 9 18 18 13 12 11 16 7 18 17 11 9 8 8 8 8
Wind_Direction
235 234 233 230 234 233 234 240 249 261 274 286 296 305 313 315 311 313 254 246 253 245 246 249 269 248 245 264 277 300 11 274 275 313 140 131 113 131 91 36 330 227 121 162 158
235 233 231 231 231 234 233 235 246 256 268 281 294 305 314 323 319 264 257 236 241 226 241 238 266 249 223 254 273 123 184 255 263 329 138 138 133 143 142 218 262 278 134 154 153
234 234 232 231 228 233 234 231 239 250 264 278 292 304 316 326 296 256 266 223 232 237 243 255 287 302 234 230 253 257 234 255 274 303 8 96 43 204 176 234 255 172 66 66 70
236 233 232 229 229 227 234 232 235 244 260 278 296 309 315 310 243 216 167 197 216 221 217 234 263 276 273 265 259 254 263 251 263 285 335 313 334 322 35 233 319 111 101 85 74
240 233 232 229 229 225 227 232 233 239 249 270 292 315 332 241 248 233 174 171 174 174 228 222 242 255 253 266 279 270 271 277 273 268 284 298 274 242 283 294 106 91 81 83 83
239 235 232 229 227 226 224 226 230 237 246 262 289 312 270 250 242 218 195 196 213 221 254 259 244 238 263 258 262 270 285 295 292 291 327 313 241 178 255 257 111 110 104 95 93
236 235 231 230 226 224 223 222 226 231 244 262 287 315 260 236 223 206 193 207 226 240 261 268 274 271 309 318 274 286 300 307 289 265 259 278 294 234 231 229 137 126 114 102 99
238 233 228 228 226 219 220 220 222 229 240 256 275 277 249 252 259 257 241 229 231 245 256 273 307 286 220 327 335 308 306 285 274 263 256 176 253 246 239 207 158 152 133 109 102
257 235 227 222 222 217 214 215 217 227 236 255 272 202 265 279 240 238 231 220 217 237 273 284 301 293 346 282 321 281 262 265 275 240 243 187 242 246 280 172 156 157 142 123 110
270 233 228 219 214 207 203 198 206 227 243 250 258 308 260 239 228 223 217 221 204 207 215 235 284 263 242 172 221 218 247 242 252 271 174 151 216 268 275 139 174 163 137 130 125
263 269 230 218 209 195 178 141 129 242 229 201 198 240 282 271 239 202 210 199 194 218 207 177 171 219 220 211 235 252 252 276 288 273 143 184 205 240 236 195 192 133 142 135 132
248 253 233 215 204 190 182 187 191 166 234 222 248 229 256 288 302 202 192 190 196 213 180 199 217 223 224 232 230 236 254 266 275 211 108 236 246 236 233 212 198 154 139 138 132
247 254 262 219 197 186 184 191 171 254 256 227 218 232 236 222 244 221 174 196 194 202 199 209 220 217 220 231 244 243 235 251 246 278 309 5 293 281 269 234 97 138 139 139 137
235 235 242 200 173 182 193 187 121 339 276 248 195 230 225 217 252 227 200 192 220 214 220 223 227 228 218 223 227 244 253 250 246 308 254 114 275 271 251 234 136 138 141 139 135
233 230 230 194 167 182 176 190 223 303 259 196 197 179 173 190 135 214 225 225 207 219 201 217 198 225 236 215 216 239 249 273 256 267 74 284 254 256 165 103 139 140 135 131 128
233 228 217 195 178 183 174 176 179 172 235 240 160 162 163 192 197 185 203 220 214 227 252 251 255 237 237 248 207 216 290 351 46 106 263 243 229 236 218 174 142 126 127 132 134
227 223 207 199 181 168 163 150 165 212 149 205 171 159 180 178 200 209 184 195 194 210 231 243 246 246 240 235 218 177 122 73 309 232 234 219 235 234 264 168 158 148 138 132 123
220 219 212 210 182 163 157 157 184 202 231 130 162 167 187 161 208 210 212 208 213 216 180 217 240 229 218 207 207 197 168 151 205 198 237 225 237 232 243 149 134 127 124 124 117
212 208 212 219 172 166 160 180 200 190 190 248 165 185 185 196 164 198 217 216 209 207 209 196 226 197 217 171 182 210 205 192 249 240 87 236 105 7 97 119 124 128 129 116 118
198 180 215 209 175 171 165 188 208 225 181 205 192 197 188 193 203 193 190 212 214 208 210 230 275 216 210 195 202 204 175 188 167 206 229 228 210 179 154 139 139 139 133 130 112
182 180 201 195 175 172 185 202 189 217 224 192 212 205 218 198 200 199 204 217 204 200 203 217 240 294 206 207 184 188 211 191 175 193 189 194 234 151 166 153 146 137 135 122 111
171 201 181 187 192 177 193 198 198 197 236 225 237 204 214 196 205 214 209 195 200 203 206 200 216 227 227 211 172 202 213 198 159 256 213 149 269 124 139 132 130 139 125 121 118
181 192 201 177 189 184 187 212 205 193 202 193 237 207 217 215 235 215 205 224 357 184 194 183 202 170 186 186 210 198 202 206 135 121 195 188 253 140 138 144 147 133 126 124 128
148 169 257 188 190 195 179 194 211 234 200 184 219 99 131 187 213 286 221 38 35 123 51 185 150 192 190 202 167 174 201 216 209 191 181 194 149 151 150 151 136 122 123 129 137
155 199 254 179 176 193 189 172 192 170 224 192 240 214 161 150 222 216 1 81 56 347 40 117 140 186 217 72 44 164 209 232 232 197 192 202 180 171 172 163 131 134 139 135 113
142 157 225 163 174 187 188 194 187 196 171 193 211 205 174 147 192 209 137 96 140 27 43 3 55 82 357 356 49 287 273 269 277 247 236 199 209 173 151 99 137 147 123 112 105
148 154 293 246 177 179 188 195 201 186 191 203 194 173 186 116 95 74 60 65 77 97 101 73 105 79 301 44 35 289 233 238 245 252 223 231 206 127 133 184 146 116 111 109 86